FLI9464 EKVG-BIAR

Flight info

Callsign FLI9464
Flight time 1h 9m
Altitude 38000
Route MY DCT MAMEP MAMEP1N
Aircraft A320/M-SDE3FGHIRWY/LB1

Departure

Time 2026-04-27 16:36
Airport Vágar Airport (EKVG)

Arrival

Time 2026-04-27 17:46
Airport Akureyri International Airport (BIAR)
Time Latitude Longitude Altitude Speed Heading
2026-04-27 16:15 62.06712 -7.28024 289 ft 0 kts 76°
2026-04-27 16:28 62.06709 -7.28050 293 ft 4 kts 71°
2026-04-27 16:28 62.06689 -7.28128 293 ft 3 kts 147°
2026-04-27 16:29 62.06689 -7.28129 293 ft 0 kts 159°
2026-04-27 16:31 62.06585 -7.28090 289 ft 14 kts 184°
2026-04-27 16:31 62.06532 -7.28417 282 ft 19 kts 298°
2026-04-27 16:32 62.06635 -7.28832 281 ft 11 kts 297°
2026-04-27 16:32 62.06664 -7.28953 279 ft 8 kts 298°
2026-04-27 16:33 62.06696 -7.29080 278 ft 7 kts 296°
2026-04-27 16:33 62.06705 -7.29151 280 ft 5 kts 276°
2026-04-27 16:33 62.06723 -7.29211 278 ft 3 kts 354°
2026-04-27 16:33 62.06727 -7.29174 277 ft 4 kts 116°
2026-04-27 16:34 62.06720 -7.29160 280 ft 2 kts 133°
2026-04-27 16:34 62.06707 -7.29122 278 ft 0 kts 119°
2026-04-27 16:35 62.06677 -7.29005 283 ft 40 kts 118°
2026-04-27 16:36 62.06417 -7.27954 295 ft 116 kts 118°
2026-04-27 16:36 62.05951 -7.26074 464 ft 159 kts 119°
2026-04-27 16:36 62.05411 -7.23861 1056 ft 178 kts 120°
2026-04-27 16:36 62.04806 -7.21391 1751 ft 196 kts 120°
2026-04-27 16:37 62.04149 -7.18752 2292 ft 207 kts 121°
2026-04-27 16:37 62.03432 -7.15912 2615 ft 230 kts 121°
2026-04-27 16:37 62.02604 -7.12794 3034 ft 253 kts 127°
2026-04-27 16:37 62.01430 -7.09892 3719 ft 263 kts 141°
2026-04-27 16:38 61.99940 -7.07608 4606 ft 265 kts 154°
2026-04-27 16:38 61.98228 -7.06130 5482 ft 267 kts 168°
2026-04-27 16:38 61.96386 -7.05559 6332 ft 269 kts 182°
2026-04-27 16:38 61.94520 -7.05975 7145 ft 271 kts 197°
2026-04-27 16:39 61.92744 -7.07339 7941 ft 273 kts 211°
2026-04-27 16:39 61.91174 -7.09600 8751 ft 274 kts 225°
2026-04-27 16:39 61.89920 -7.12630 9560 ft 275 kts 239°
2026-04-27 16:39 61.89061 -7.16256 10366 ft 276 kts 253°
2026-04-27 16:40 61.88643 -7.20227 11113 ft 277 kts 267°
2026-04-27 16:40 61.88689 -7.24283 11902 ft 276 kts 281°
2026-04-27 16:40 61.89209 -7.28200 12677 ft 277 kts 294°
2026-04-27 16:40 61.90171 -7.31682 13429 ft 280 kts 307°
2026-04-27 16:41 61.91549 -7.34638 14180 ft 285 kts 321°
2026-04-27 16:41 61.93242 -7.36902 14754 ft 294 kts 327°
2026-04-27 16:41 61.95076 -7.39177 14893 ft 316 kts 327°
2026-04-27 16:41 61.97013 -7.41592 15262 ft 328 kts 327°
2026-04-27 16:42 61.98997 -7.44069 15865 ft 332 kts 327°
2026-04-27 16:42 62.00999 -7.46575 16506 ft 335 kts 327°
2026-04-27 16:42 62.03014 -7.49101 17165 ft 338 kts 327°
2026-04-27 16:42 62.05050 -7.51658 17810 ft 341 kts 327°
2026-04-27 16:43 62.07101 -7.54231 18455 ft 344 kts 327°
2026-04-27 16:43 62.09165 -7.56828 19025 ft 346 kts 327°
2026-04-27 16:43 62.11125 -7.59819 19577 ft 347 kts 316°
2026-04-27 16:43 62.12833 -7.63468 20124 ft 349 kts 313°
2026-04-27 16:44 62.14527 -7.67217 20674 ft 352 kts 313°
2026-04-27 16:44 62.16235 -7.70976 21239 ft 354 kts 313°
2026-04-27 16:44 62.17959 -7.74771 21775 ft 357 kts 313°
2026-04-27 16:44 62.19697 -7.78607 22313 ft 360 kts 313°
2026-04-27 16:45 62.21446 -7.82480 22845 ft 363 kts 313°
2026-04-27 16:45 62.23203 -7.86390 23371 ft 366 kts 313°
2026-04-27 16:45 62.24975 -7.90340 23896 ft 369 kts 313°
2026-04-27 16:45 62.26757 -7.94317 24326 ft 371 kts 313°
2026-04-27 16:46 62.28555 -7.98331 24755 ft 373 kts 313°
2026-04-27 16:46 62.30359 -8.02363 25184 ft 375 kts 312°
2026-04-27 16:46 62.32169 -8.06424 25603 ft 377 kts 312°
2026-04-27 16:46 62.33987 -8.10522 26009 ft 379 kts 312°
2026-04-27 16:47 62.35816 -8.14640 26406 ft 382 kts 312°
2026-04-27 16:47 62.37655 -8.18778 26794 ft 384 kts 312°
2026-04-27 16:47 62.39506 -8.22956 27166 ft 386 kts 312°
2026-04-27 16:47 62.41359 -8.27161 27535 ft 388 kts 312°
2026-04-27 16:48 62.43223 -8.31388 27907 ft 390 kts 312°
2026-04-27 16:48 62.45099 -8.35647 28274 ft 392 kts 312°
2026-04-27 16:48 62.46982 -8.39929 28627 ft 394 kts 312°
2026-04-27 16:49 62.50773 -8.48567 29315 ft 398 kts 312°
2026-04-27 16:49 62.52681 -8.52934 29643 ft 400 kts 312°
2026-04-27 16:49 62.54597 -8.57333 29965 ft 402 kts 312°
2026-04-27 16:49 62.56519 -8.61744 30309 ft 404 kts 312°
2026-04-27 16:50 62.58450 -8.66182 30588 ft 406 kts 311°
2026-04-27 16:50 62.60386 -8.70646 30856 ft 407 kts 311°
2026-04-27 16:50 62.62325 -8.75136 31129 ft 408 kts 311°
2026-04-27 16:50 62.64263 -8.79640 31405 ft 408 kts 311°
2026-04-27 16:51 62.66202 -8.84153 31671 ft 409 kts 311°
2026-04-27 16:51 62.68140 -8.88666 32016 ft 407 kts 311°
2026-04-27 16:51 62.70069 -8.93167 32369 ft 405 kts 311°
2026-04-27 16:51 62.71990 -8.97655 32686 ft 404 kts 311°
2026-04-27 16:52 62.73903 -9.02125 33031 ft 403 kts 311°
2026-04-27 16:52 62.75810 -9.06594 33397 ft 401 kts 311°
2026-04-27 16:52 62.77706 -9.11044 33771 ft 399 kts 311°
2026-04-27 16:52 62.79592 -9.15478 34152 ft 397 kts 311°
2026-04-27 16:53 62.81464 -9.19897 34499 ft 395 kts 311°
2026-04-27 16:53 62.83323 -9.24296 34816 ft 394 kts 310°
2026-04-27 16:53 62.85177 -9.28702 35081 ft 393 kts 310°
2026-04-27 16:53 62.87023 -9.33101 35335 ft 392 kts 310°
2026-04-27 16:54 62.88871 -9.37510 35579 ft 392 kts 311°
2026-04-27 16:54 62.90716 -9.41904 35819 ft 391 kts 311°
2026-04-27 16:54 62.92556 -9.46295 36049 ft 391 kts 311°
2026-04-27 16:54 62.94396 -9.50691 36274 ft 390 kts 311°
2026-04-27 16:55 62.96205 -9.55024 36485 ft 390 kts 311°
2026-04-27 16:55 62.98035 -9.59424 36717 ft 389 kts 311°
2026-04-27 16:55 62.99858 -9.63829 36917 ft 389 kts 311°
2026-04-27 16:55 63.01678 -9.68233 37120 ft 389 kts 311°
2026-04-27 16:56 63.03493 -9.72625 37319 ft 388 kts 311°
2026-04-27 16:56 63.05310 -9.77032 37507 ft 388 kts 311°
2026-04-27 16:56 63.07124 -9.81437 37696 ft 388 kts 311°
2026-04-27 16:56 63.08934 -9.85836 37836 ft 388 kts 310°
2026-04-27 16:57 63.10745 -9.90261 37994 ft 389 kts 310°
2026-04-27 16:57 63.12558 -9.94705 38150 ft 389 kts 310°
2026-04-27 16:57 63.14394 -9.99200 38275 ft 390 kts 310°
2026-04-27 16:57 63.16190 -10.03581 38274 ft 390 kts 310°
2026-04-27 16:58 63.19445 -10.11546 38274 ft 389 kts 310°
2026-04-27 16:58 63.23063 -10.20477 38274 ft 389 kts 310°
2026-04-27 16:59 63.26676 -10.29433 38268 ft 389 kts 310°
2026-04-27 16:59 63.30279 -10.38420 38270 ft 389 kts 309°
2026-04-27 17:00 63.35678 -10.51942 38281 ft 390 kts 309°
2026-04-27 17:01 63.39276 -10.60965 38277 ft 390 kts 309°
2026-04-27 17:01 63.42867 -10.70034 38271 ft 390 kts 309°
2026-04-27 17:02 63.46449 -10.79123 38255 ft 390 kts 308°
2026-04-27 17:02 63.50026 -10.88228 38251 ft 390 kts 308°
2026-04-27 17:03 63.53602 -10.97375 38247 ft 390 kts 308°
2026-04-27 17:03 63.57171 -11.06526 38239 ft 390 kts 308°
2026-04-27 17:04 63.60737 -11.15709 38241 ft 390 kts 308°
2026-04-27 17:04 63.64296 -11.24910 38250 ft 390 kts 308°
2026-04-27 17:05 63.67846 -11.34138 38235 ft 390 kts 308°
2026-04-27 17:05 63.71388 -11.43386 38230 ft 390 kts 308°
2026-04-27 17:06 63.74925 -11.52661 38228 ft 390 kts 307°
2026-04-27 17:06 63.78458 -11.61965 38211 ft 390 kts 307°
2026-04-27 17:07 63.81980 -11.71294 38218 ft 390 kts 307°
2026-04-27 17:07 63.85503 -11.80642 38222 ft 390 kts 306°
2026-04-27 17:08 63.89028 -11.90013 38214 ft 390 kts 306°
2026-04-27 17:08 63.92542 -11.99428 38197 ft 391 kts 306°
2026-04-27 17:09 63.96059 -12.08877 38190 ft 391 kts 306°
2026-04-27 17:09 63.99571 -12.18339 38176 ft 391 kts 306°
2026-04-27 17:10 64.03077 -12.27835 38171 ft 391 kts 305°
2026-04-27 17:10 64.06570 -12.37355 38167 ft 391 kts 305°
2026-04-27 17:11 64.10054 -12.46918 38157 ft 391 kts 305°
2026-04-27 17:11 64.14693 -12.59660 38156 ft 391 kts 305°
2026-04-27 17:12 64.19900 -12.74066 38147 ft 391 kts 305°
2026-04-27 17:13 64.23280 -12.83446 37425 ft 392 kts 305°
2026-04-27 17:13 64.25022 -12.88291 37550 ft 393 kts 309°
2026-04-27 17:13 64.26759 -12.93135 37727 ft 393 kts 308°
2026-04-27 17:13 64.28496 -12.97999 37893 ft 393 kts 309°
2026-04-27 17:14 64.30232 -13.02878 38011 ft 395 kts 309°
2026-04-27 17:14 64.33758 -13.12808 38010 ft 405 kts 308°
2026-04-27 17:15 64.37356 -13.22985 38010 ft 414 kts 308°
2026-04-27 17:15 64.41033 -13.33429 38010 ft 423 kts 308°
2026-04-27 17:16 64.44779 -13.44107 38010 ft 432 kts 308°
2026-04-27 17:16 64.48590 -13.55064 38010 ft 440 kts 308°
2026-04-27 17:17 64.52436 -13.66178 38009 ft 443 kts 308°
2026-04-27 17:17 64.56267 -13.77288 38009 ft 443 kts 308°
2026-04-27 17:18 64.62046 -13.94099 38010 ft 443 kts 308°
2026-04-27 17:18 64.65883 -14.05377 38014 ft 444 kts 308°
2026-04-27 17:19 64.69710 -14.16677 38017 ft 444 kts 308°
2026-04-27 17:19 64.73535 -14.28018 38005 ft 444 kts 307°
2026-04-27 17:20 64.77367 -14.39416 37768 ft 445 kts 307°
2026-04-27 17:20 64.79276 -14.45114 37520 ft 444 kts 307°
2026-04-27 17:20 64.81087 -14.50555 37281 ft 444 kts 307°
2026-04-27 17:21 64.82896 -14.56015 37043 ft 445 kts 307°
2026-04-27 17:21 64.84798 -14.61756 36691 ft 445 kts 307°
2026-04-27 17:21 64.86698 -14.67493 36086 ft 444 kts 307°
2026-04-27 17:21 64.88580 -14.73189 35592 ft 440 kts 307°
2026-04-27 17:22 64.90451 -14.78865 35056 ft 437 kts 307°
2026-04-27 17:22 64.92305 -14.84510 34528 ft 434 kts 307°
2026-04-27 17:22 64.94144 -14.90118 34004 ft 431 kts 307°
2026-04-27 17:22 64.95972 -14.95710 33479 ft 429 kts 307°
2026-04-27 17:23 64.97781 -15.01264 32961 ft 426 kts 307°
2026-04-27 17:23 64.99580 -15.06807 32447 ft 423 kts 307°
2026-04-27 17:23 65.01367 -15.12317 31929 ft 421 kts 307°
2026-04-27 17:23 65.03140 -15.17789 31435 ft 418 kts 307°
2026-04-27 17:24 65.04900 -15.23244 30935 ft 415 kts 307°
2026-04-27 17:24 65.06641 -15.28656 30451 ft 412 kts 306°
2026-04-27 17:24 65.08372 -15.34051 29977 ft 409 kts 306°
2026-04-27 17:24 65.10087 -15.39408 29505 ft 406 kts 306°
2026-04-27 17:25 65.11785 -15.44725 29048 ft 403 kts 306°
2026-04-27 17:25 65.13471 -15.50013 28603 ft 400 kts 306°
2026-04-27 17:25 65.15141 -15.55264 28152 ft 397 kts 306°
2026-04-27 17:25 65.16796 -15.60477 27710 ft 394 kts 306°
2026-04-27 17:26 65.18440 -15.65665 27271 ft 391 kts 306°
2026-04-27 17:26 65.20067 -15.70822 26821 ft 388 kts 306°
2026-04-27 17:26 65.21682 -15.75959 26373 ft 386 kts 306°
2026-04-27 17:26 65.23263 -15.80997 25916 ft 384 kts 306°
2026-04-27 17:27 65.24876 -15.86138 25453 ft 381 kts 306°
2026-04-27 17:27 65.26460 -15.91192 24976 ft 379 kts 306°
2026-04-27 17:27 65.28036 -15.96228 24506 ft 377 kts 306°
2026-04-27 17:27 65.29578 -16.01177 24024 ft 375 kts 306°
2026-04-27 17:28 65.31148 -16.06233 23526 ft 373 kts 306°
2026-04-27 17:28 65.32671 -16.11150 23067 ft 371 kts 306°
2026-04-27 17:28 65.35729 -16.21048 22119 ft 368 kts 306°
2026-04-27 17:29 65.37248 -16.25969 21659 ft 366 kts 306°
2026-04-27 17:29 65.38755 -16.30862 21202 ft 364 kts 306°
2026-04-27 17:29 65.40254 -16.35742 20747 ft 363 kts 305°
2026-04-27 17:29 65.41745 -16.40613 20298 ft 361 kts 305°
2026-04-27 17:30 65.43225 -16.45463 19847 ft 359 kts 305°
2026-04-27 17:30 65.46157 -16.55093 18958 ft 355 kts 305°
2026-04-27 17:30 65.47613 -16.59884 18523 ft 353 kts 305°
2026-04-27 17:31 65.49057 -16.64651 18090 ft 352 kts 305°
2026-04-27 17:31 65.50491 -16.69401 17655 ft 350 kts 305°
2026-04-27 17:31 65.51920 -16.74138 17233 ft 348 kts 305°
2026-04-27 17:31 65.53340 -16.78854 16816 ft 346 kts 305°
2026-04-27 17:32 65.54748 -16.83549 16399 ft 345 kts 305°
2026-04-27 17:32 65.57539 -16.92888 15581 ft 341 kts 305°
2026-04-27 17:32 65.58919 -16.97523 15172 ft 339 kts 304°
2026-04-27 17:33 65.60294 -17.02146 14771 ft 337 kts 304°
2026-04-27 17:33 65.61662 -17.06740 14377 ft 335 kts 305°
2026-04-27 17:33 65.63024 -17.11316 13970 ft 334 kts 304°
2026-04-27 17:33 65.64339 -17.15747 13589 ft 332 kts 304°
2026-04-27 17:34 65.65712 -17.20397 13172 ft 330 kts 304°
2026-04-27 17:34 65.67038 -17.24917 12764 ft 328 kts 304°
2026-04-27 17:34 65.68357 -17.29415 12367 ft 326 kts 304°
2026-04-27 17:34 65.69666 -17.33882 11951 ft 324 kts 304°
2026-04-27 17:35 65.70931 -17.38386 11541 ft 322 kts 302°
2026-04-27 17:35 65.72133 -17.42964 11132 ft 320 kts 301°
2026-04-27 17:35 65.73297 -17.47549 10706 ft 318 kts 300°
2026-04-27 17:35 65.74446 -17.52123 10286 ft 316 kts 300°
2026-04-27 17:36 65.75592 -17.56685 9857 ft 315 kts 300°
2026-04-27 17:36 65.76736 -17.61205 9440 ft 313 kts 301°
2026-04-27 17:36 65.77865 -17.65642 9006 ft 312 kts 301°
2026-04-27 17:36 65.79001 -17.70100 8704 ft 306 kts 301°
2026-04-27 17:37 65.80100 -17.74413 8562 ft 294 kts 301°
2026-04-27 17:37 65.81162 -17.78578 8445 ft 283 kts 301°
2026-04-27 17:37 65.82146 -17.82620 8314 ft 272 kts 297°
2026-04-27 17:37 65.83007 -17.86625 8019 ft 262 kts 295°
2026-04-27 17:38 65.83808 -17.90561 7481 ft 258 kts 295°
2026-04-27 17:38 65.84592 -17.94479 6920 ft 256 kts 295°
2026-04-27 17:38 65.85371 -17.98366 6313 ft 254 kts 295°
2026-04-27 17:38 65.85923 -18.02394 5723 ft 249 kts 272°
2026-04-27 17:39 65.85688 -18.06415 5434 ft 232 kts 246°
2026-04-27 17:39 65.84846 -18.09674 4856 ft 231 kts 222°
2026-04-27 17:39 65.83466 -18.11705 4195 ft 234 kts 196°
2026-04-27 17:39 65.81878 -18.12028 3844 ft 223 kts 173°
2026-04-27 17:40 65.80398 -18.11534 3707 ft 206 kts 173°
2026-04-27 17:40 65.78958 -18.11078 3137 ft 212 kts 173°
2026-04-27 17:40 65.77544 -18.10715 3008 ft 201 kts 183°
2026-04-27 17:40 65.76226 -18.11860 3016 ft 208 kts 219°
2026-04-27 17:41 65.75423 -18.14750 3020 ft 211 kts 255°
2026-04-27 17:41 65.75467 -18.18290 3023 ft 215 kts 289°
2026-04-27 17:41 65.76359 -18.21181 3024 ft 218 kts 324°
2026-04-27 17:41 65.77769 -18.22373 2849 ft 217 kts 359°
2026-04-27 17:42 65.79204 -18.21415 2587 ft 215 kts 36°
2026-04-27 17:42 65.80119 -18.18619 2511 ft 213 kts 73°
2026-04-27 17:42 65.80283 -18.15071 2510 ft 212 kts 104°
2026-04-27 17:42 65.79605 -18.12117 2509 ft 197 kts 142°
2026-04-27 17:43 65.78397 -18.10817 2534 ft 190 kts 175°
2026-04-27 17:43 65.77073 -18.10647 2549 ft 190 kts 175°
2026-04-27 17:43 65.75767 -18.10278 2239 ft 188 kts 173°
2026-04-27 17:43 65.74477 -18.09837 1922 ft 186 kts 172°
2026-04-27 17:44 65.73218 -18.09400 1604 ft 177 kts 173°
2026-04-27 17:44 65.72054 -18.09003 1346 ft 160 kts 173°
2026-04-27 17:44 65.71011 -18.08625 1067 ft 148 kts 169°
2026-04-27 17:44 65.70042 -18.08054 829 ft 140 kts 170°
2026-04-27 17:45 65.69080 -18.07864 551 ft 138 kts 180°
2026-04-27 17:45 65.68132 -18.07661 314 ft 136 kts 174°
2026-04-27 17:45 65.67186 -18.07482 149 ft 137 kts 176°
2026-04-27 17:45 65.66256 -18.07316 25 ft 126 kts 175°
2026-04-27 17:46 65.65599 -18.07194 21 ft 53 kts 175°
2026-04-27 17:46 65.65481 -18.07211 21 ft 6 kts 248°
2026-04-27 17:46 65.65479 -18.07311 21 ft 9 kts 268°
2026-04-27 17:46 65.65446 -18.07416 21 ft 8 kts 182°
2026-04-27 17:47 65.65420 -18.07461 21 ft 0 kts 271°
2026-04-27 17:48 65.65430 -18.07487 21 ft 0 kts 354°